Year,Month,Day,Hour,Minute,Value (Times are PST for temperature in C)
2024,01,31,00,00,13.70
2024,01,31,00,01,13.80
2024,01,31,00,02,13.80
2024,01,31,00,03,13.80
2024,01,31,00,04,13.80
2024,01,31,00,05,13.80
2024,01,31,00,06,13.80
2024,01,31,00,07,13.80
2024,01,31,00,08,13.80
2024,01,31,00,09,13.80
2024,01,31,00,10,13.80
2024,01,31,00,11,13.80
2024,01,31,00,12,13.80
2024,01,31,00,13,13.80
2024,01,31,00,14,13.80
2024,01,31,00,15,13.80
2024,01,31,00,16,13.80
2024,01,31,00,17,13.80
2024,01,31,00,18,13.70
2024,01,31,00,19,13.70
2024,01,31,00,20,13.70
2024,01,31,00,21,13.70
2024,01,31,00,22,13.70
2024,01,31,00,23,13.70
2024,01,31,00,24,13.60
2024,01,31,00,25,13.70
2024,01,31,00,26,13.70
2024,01,31,00,27,13.70
2024,01,31,00,28,13.70
2024,01,31,00,29,13.70
2024,01,31,00,30,13.70
2024,01,31,00,31,13.70
2024,01,31,00,32,13.70
2024,01,31,00,33,13.70
2024,01,31,00,34,13.70
2024,01,31,00,35,13.70
2024,01,31,00,36,13.60
2024,01,31,00,37,13.60
2024,01,31,00,38,13.60
2024,01,31,00,39,13.50
2024,01,31,00,40,13.50
2024,01,31,00,41,13.40
2024,01,31,00,42,13.40
2024,01,31,00,43,13.30
2024,01,31,00,44,13.20
2024,01,31,00,45,13.20
2024,01,31,00,46,13.10
2024,01,31,00,47,13.10
2024,01,31,00,48,13.10
2024,01,31,00,49,13.10
2024,01,31,00,50,13.10
2024,01,31,00,51,13.20
2024,01,31,00,52,13.20
2024,01,31,00,53,13.30
2024,01,31,00,54,13.30
2024,01,31,00,55,13.30
2024,01,31,00,56,13.40
2024,01,31,00,57,13.40
2024,01,31,00,58,13.40
2024,01,31,00,59,13.30
2024,01,31,01,00,13.30
2024,01,31,01,01,13.30
2024,01,31,01,02,13.30
2024,01,31,01,03,13.30
2024,01,31,01,04,13.30
2024,01,31,01,05,13.20
2024,01,31,01,06,13.20
2024,01,31,01,07,13.20
2024,01,31,01,08,13.10
2024,01,31,01,09,13.10
2024,01,31,01,10,13.10
2024,01,31,01,11,13.00
2024,01,31,01,12,13.00
2024,01,31,01,13,12.90
2024,01,31,01,14,12.90
2024,01,31,01,15,12.90
2024,01,31,01,16,12.90
2024,01,31,01,17,12.90
2024,01,31,01,18,12.90
2024,01,31,01,19,12.80
2024,01,31,01,20,12.80
2024,01,31,01,21,12.80
2024,01,31,01,22,12.80
2024,01,31,01,23,12.80
2024,01,31,01,24,12.80
2024,01,31,01,25,12.80
2024,01,31,01,26,12.80
2024,01,31,01,27,12.70
2024,01,31,01,28,12.70
2024,01,31,01,29,12.70
2024,01,31,01,30,12.70
2024,01,31,01,31,12.70
2024,01,31,01,32,12.70
2024,01,31,01,33,12.70
2024,01,31,01,34,12.70
2024,01,31,01,35,12.70
2024,01,31,01,36,12.70
2024,01,31,01,37,12.60
2024,01,31,01,38,12.60
2024,01,31,01,39,12.60
2024,01,31,01,40,12.60
2024,01,31,01,41,12.60
2024,01,31,01,42,12.60
2024,01,31,01,43,12.60
2024,01,31,01,44,12.70
2024,01,31,01,45,12.80
2024,01,31,01,46,12.90
2024,01,31,01,47,13.00
2024,01,31,01,48,13.10
2024,01,31,01,49,13.20
2024,01,31,01,50,13.20
2024,01,31,01,51,13.20
2024,01,31,01,52,13.20
2024,01,31,01,53,13.20
2024,01,31,01,54,13.20
2024,01,31,01,55,13.20
2024,01,31,01,56,13.20
2024,01,31,01,57,13.20
2024,01,31,01,58,13.10
2024,01,31,01,59,13.00
2024,01,31,02,00,12.80
2024,01,31,02,01,12.80
2024,01,31,02,02,12.80
2024,01,31,02,03,12.80
2024,01,31,02,04,12.80
2024,01,31,02,05,12.90
2024,01,31,02,06,13.10
2024,01,31,02,07,13.20
2024,01,31,02,08,13.30
2024,01,31,02,09,13.40
2024,01,31,02,10,13.50
2024,01,31,02,11,13.60
2024,01,31,02,12,13.70
2024,01,31,02,13,13.70
2024,01,31,02,14,13.80
2024,01,31,02,15,13.80
2024,01,31,02,16,13.80
2024,01,31,02,17,13.70
2024,01,31,02,18,13.70
2024,01,31,02,19,13.70
2024,01,31,02,20,13.80
2024,01,31,02,21,13.80
2024,01,31,02,22,13.80
2024,01,31,02,23,13.80
2024,01,31,02,24,13.80
2024,01,31,02,25,13.90
2024,01,31,02,26,14.00
2024,01,31,02,27,14.10
2024,01,31,02,28,14.00
2024,01,31,02,29,14.00
2024,01,31,02,30,14.00
2024,01,31,02,31,13.90
2024,01,31,02,32,13.80
2024,01,31,02,33,13.70
2024,01,31,02,34,13.60
2024,01,31,02,35,13.50
2024,01,31,02,36,13.40
2024,01,31,02,37,13.30
2024,01,31,02,38,13.20
2024,01,31,02,39,13.20
2024,01,31,02,40,13.10
2024,01,31,02,41,13.00
2024,01,31,02,42,13.00
2024,01,31,02,43,13.00
2024,01,31,02,44,13.00
2024,01,31,02,45,13.00
2024,01,31,02,46,12.90
2024,01,31,02,47,12.90
2024,01,31,02,48,12.80
2024,01,31,02,49,12.80
2024,01,31,02,50,12.70
2024,01,31,02,51,12.70
2024,01,31,02,52,12.70
2024,01,31,02,53,12.60
2024,01,31,02,54,12.60
2024,01,31,02,55,12.60
2024,01,31,02,56,12.60
2024,01,31,02,57,12.60
2024,01,31,02,58,12.60
2024,01,31,02,59,12.60
2024,01,31,03,00,12.60
2024,01,31,03,01,12.50
2024,01,31,03,02,12.40
2024,01,31,03,03,12.30
2024,01,31,03,04,12.20
2024,01,31,03,05,12.20
2024,01,31,03,06,12.20
2024,01,31,03,07,12.10
2024,01,31,03,08,12.10
2024,01,31,03,09,12.10
2024,01,31,03,10,12.10
2024,01,31,03,11,12.10
2024,01,31,03,12,12.10
2024,01,31,03,13,12.20
2024,01,31,03,14,12.20
2024,01,31,03,15,12.20
2024,01,31,03,16,12.20
2024,01,31,03,17,12.20
2024,01,31,03,18,12.20
2024,01,31,03,19,12.20
2024,01,31,03,20,12.20
2024,01,31,03,21,12.20
2024,01,31,03,22,12.20
2024,01,31,03,23,12.10
2024,01,31,03,24,12.10
2024,01,31,03,25,12.10
2024,01,31,03,26,12.10
2024,01,31,03,27,12.10
2024,01,31,03,28,12.20
2024,01,31,03,29,12.20
2024,01,31,03,30,12.30
2024,01,31,03,31,12.30
2024,01,31,03,32,12.30
2024,01,31,03,33,12.30
2024,01,31,03,34,12.30
2024,01,31,03,35,12.30
2024,01,31,03,36,12.40
2024,01,31,03,37,12.40
2024,01,31,03,38,12.40
2024,01,31,03,39,12.50
2024,01,31,03,40,12.60
2024,01,31,03,41,12.60
2024,01,31,03,42,12.70
2024,01,31,03,43,12.70
2024,01,31,03,44,12.80
2024,01,31,03,45,12.80
2024,01,31,03,46,12.80
2024,01,31,03,47,12.90
2024,01,31,03,48,12.90
2024,01,31,03,49,12.90
2024,01,31,03,50,12.90
2024,01,31,03,51,12.80
2024,01,31,03,52,12.80
2024,01,31,03,53,12.70
2024,01,31,03,54,12.60
2024,01,31,03,55,12.60
2024,01,31,03,56,12.50
2024,01,31,03,57,12.50
2024,01,31,03,58,12.50
2024,01,31,03,59,12.50
2024,01,31,04,00,12.50
2024,01,31,04,01,12.50
2024,01,31,04,02,12.40
2024,01,31,04,03,12.40
2024,01,31,04,04,12.30
2024,01,31,04,05,12.30
2024,01,31,04,06,12.30
2024,01,31,04,07,12.30
2024,01,31,04,08,12.20
2024,01,31,04,09,12.20
2024,01,31,04,10,12.20
2024,01,31,04,11,12.30
2024,01,31,04,12,12.30
2024,01,31,04,13,12.40
2024,01,31,04,14,12.40
2024,01,31,04,15,12.40
2024,01,31,04,16,12.40
2024,01,31,04,17,12.50
2024,01,31,04,18,12.50
2024,01,31,04,19,12.60
2024,01,31,04,20,12.60
2024,01,31,04,21,12.70
2024,01,31,04,22,12.70
2024,01,31,04,23,12.60
2024,01,31,04,24,12.60
2024,01,31,04,25,12.60
2024,01,31,04,26,12.60
2024,01,31,04,27,12.60
2024,01,31,04,28,12.60
2024,01,31,04,29,12.60
2024,01,31,04,30,12.60
2024,01,31,04,31,12.60
2024,01,31,04,32,12.60
2024,01,31,04,33,12.60
2024,01,31,04,34,12.60
2024,01,31,04,35,12.50
2024,01,31,04,36,12.50
2024,01,31,04,37,12.50
2024,01,31,04,38,12.50
2024,01,31,04,39,12.50
2024,01,31,04,40,12.40
2024,01,31,04,41,12.50
2024,01,31,04,42,12.50
2024,01,31,04,43,12.50
2024,01,31,04,44,12.50
2024,01,31,04,45,12.50
2024,01,31,04,46,12.40
2024,01,31,04,47,12.40
2024,01,31,04,48,12.40
2024,01,31,04,49,12.40
2024,01,31,04,50,12.40
2024,01,31,04,51,12.30
2024,01,31,04,52,12.30
2024,01,31,04,53,12.30
2024,01,31,04,54,12.20
2024,01,31,04,55,12.20
2024,01,31,04,56,12.10
2024,01,31,04,57,12.10
2024,01,31,04,58,12.10
2024,01,31,04,59,12.10
2024,01,31,05,00,12.10
2024,01,31,05,01,12.10
2024,01,31,05,02,12.10
2024,01,31,05,03,12.00
2024,01,31,05,04,12.00
2024,01,31,05,05,12.00
2024,01,31,05,06,11.90
2024,01,31,05,07,12.00
2024,01,31,05,08,12.00
2024,01,31,05,09,12.10
2024,01,31,05,10,12.10
2024,01,31,05,11,12.10
2024,01,31,05,12,12.10
2024,01,31,05,13,12.20
2024,01,31,05,14,12.20
2024,01,31,05,15,12.20
2024,01,31,05,16,12.20
2024,01,31,05,17,12.20
2024,01,31,05,18,12.20
2024,01,31,05,19,12.10
2024,01,31,05,20,12.10
2024,01,31,05,21,12.10
2024,01,31,05,22,12.10
2024,01,31,05,23,12.00
2024,01,31,05,24,12.00
2024,01,31,05,25,11.90
2024,01,31,05,26,11.90
2024,01,31,05,27,11.90
2024,01,31,05,28,11.80
2024,01,31,05,29,11.80
2024,01,31,05,30,11.80
2024,01,31,05,31,11.80
2024,01,31,05,32,11.80
2024,01,31,05,33,11.80
2024,01,31,05,34,11.80
2024,01,31,05,35,11.80
2024,01,31,05,36,11.80
2024,01,31,05,37,11.80
2024,01,31,09,07,12.10
2024,01,31,09,08,12.10
2024,01,31,09,09,12.10
2024,01,31,09,10,12.10
2024,01,31,09,11,12.00
2024,01,31,09,12,12.00
2024,01,31,09,13,12.00
2024,01,31,09,14,12.10
2024,01,31,09,15,12.10
2024,01,31,09,16,12.20
2024,01,31,09,17,12.20
2024,01,31,09,18,12.20
2024,01,31,09,19,12.20
2024,01,31,09,20,12.20
2024,01,31,09,21,12.20
2024,01,31,09,22,12.20
2024,01,31,09,23,12.20
2024,01,31,09,24,12.20
2024,01,31,09,25,12.20
2024,01,31,09,26,12.20
2024,01,31,09,27,12.20
2024,01,31,09,28,12.10
2024,01,31,09,29,12.10
2024,01,31,09,30,12.10
2024,01,31,09,31,12.10
2024,01,31,09,32,12.10
2024,01,31,09,33,12.00
2024,01,31,09,34,12.00
2024,01,31,09,35,12.00
2024,01,31,09,36,12.00
2024,01,31,09,37,11.90
2024,01,31,09,38,11.90
2024,01,31,09,39,11.90
2024,01,31,09,40,11.90
2024,01,31,09,41,11.90
2024,01,31,09,42,11.90
2024,01,31,09,43,11.90
2024,01,31,09,44,11.90
2024,01,31,09,45,11.90
2024,01,31,09,46,11.90
2024,01,31,09,47,11.90
2024,01,31,09,48,11.80
2024,01,31,09,49,11.80
2024,01,31,09,50,11.80
2024,01,31,09,51,11.80
2024,01,31,09,52,11.80
2024,01,31,09,53,11.80
2024,01,31,09,54,11.80
2024,01,31,09,55,11.80
2024,01,31,09,56,11.80
2024,01,31,09,57,11.80
2024,01,31,09,58,11.90
2024,01,31,09,59,11.90
2024,01,31,10,00,11.90
2024,01,31,10,01,11.90
2024,01,31,10,02,11.90
2024,01,31,10,03,11.90
2024,01,31,10,04,11.80
2024,01,31,10,05,11.80
2024,01,31,10,06,11.80
2024,01,31,10,07,11.70
2024,01,31,10,08,11.70
2024,01,31,10,09,11.70
2024,01,31,10,10,11.70
2024,01,31,10,11,11.70
2024,01,31,10,12,11.60
2024,01,31,10,13,11.60
2024,01,31,10,14,11.60
2024,01,31,10,15,11.60
2024,01,31,10,16,11.60
2024,01,31,10,17,11.60
2024,01,31,10,18,11.60
2024,01,31,10,19,11.60
2024,01,31,10,20,11.70
2024,01,31,10,21,11.70
2024,01,31,10,22,11.70
2024,01,31,10,23,11.70
2024,01,31,10,24,11.70
2024,01,31,10,25,11.80
2024,01,31,10,26,11.80
2024,01,31,10,27,11.80
2024,01,31,10,28,11.80
2024,01,31,10,29,11.80
2024,01,31,10,30,11.80
2024,01,31,10,31,11.80
2024,01,31,10,32,11.80
2024,01,31,10,33,11.80
2024,01,31,10,34,11.80
2024,01,31,10,35,11.80
2024,01,31,10,36,11.80
2024,01,31,10,37,11.80
2024,01,31,10,38,11.80
2024,01,31,10,39,11.80
2024,01,31,10,40,11.80
2024,01,31,10,41,11.80
2024,01,31,10,42,11.80
2024,01,31,10,43,11.80
2024,01,31,10,44,11.90
2024,01,31,10,45,11.90
2024,01,31,10,46,11.90
2024,01,31,10,47,11.90
2024,01,31,10,48,11.90
2024,01,31,10,49,11.90
2024,01,31,10,50,11.90
2024,01,31,10,51,12.00
2024,01,31,10,52,12.00
2024,01,31,10,53,12.00
2024,01,31,10,54,12.00
2024,01,31,10,55,12.00
2024,01,31,10,56,12.00
2024,01,31,10,57,12.00
2024,01,31,10,58,12.00
2024,01,31,10,59,12.00
2024,01,31,11,00,12.10
2024,01,31,11,01,12.00
2024,01,31,11,02,12.00
2024,01,31,11,03,12.00
2024,01,31,11,04,12.00
2024,01,31,11,05,12.00
2024,01,31,11,06,12.00
2024,01,31,11,07,12.00
2024,01,31,11,08,12.00
2024,01,31,11,09,12.00
2024,01,31,11,10,12.00
2024,01,31,11,11,12.00
2024,01,31,11,12,12.00
2024,01,31,11,13,12.00
2024,01,31,11,14,12.10
2024,01,31,11,15,12.10
2024,01,31,11,16,12.00
2024,01,31,11,17,12.00
2024,01,31,11,18,12.00
2024,01,31,11,19,12.10
2024,01,31,11,20,12.10
2024,01,31,11,21,12.10
2024,01,31,11,22,12.10
2024,01,31,11,23,12.10
2024,01,31,11,24,12.10
2024,01,31,11,25,12.10
2024,01,31,11,26,12.10
2024,01,31,11,27,12.10
2024,01,31,11,28,12.10
2024,01,31,11,29,12.10
2024,01,31,11,30,12.10
2024,01,31,11,31,12.20
2024,01,31,11,32,12.20
2024,01,31,11,33,12.20
2024,01,31,11,34,12.20
2024,01,31,11,35,12.20
2024,01,31,11,36,12.20
2024,01,31,11,37,12.30
2024,01,31,11,38,12.20
2024,01,31,11,39,12.20
2024,01,31,11,40,12.20
2024,01,31,11,41,12.20
2024,01,31,11,42,12.10
2024,01,31,11,43,12.20
2024,01,31,11,44,12.20
2024,01,31,11,45,12.20
2024,01,31,11,46,12.20
2024,01,31,11,47,12.20
2024,01,31,11,48,12.20
2024,01,31,11,49,12.20
2024,01,31,11,50,12.20
2024,01,31,11,51,12.20
2024,01,31,11,52,12.20
2024,01,31,11,53,12.30
2024,01,31,11,54,12.30
2024,01,31,11,55,12.30
2024,01,31,11,56,12.30
2024,01,31,11,57,12.30
2024,01,31,11,58,12.30
2024,01,31,11,59,12.20
2024,01,31,12,00,12.20
2024,01,31,12,01,12.20
2024,01,31,12,02,12.20
2024,01,31,12,03,12.10
2024,01,31,12,04,12.10
2024,01,31,12,05,12.10
2024,01,31,12,06,12.10
2024,01,31,12,07,12.10
2024,01,31,12,08,12.10
2024,01,31,12,09,12.10
2024,01,31,12,10,12.10
2024,01,31,12,11,12.10
2024,01,31,12,12,12.10
2024,01,31,12,13,12.10
2024,01,31,12,14,12.10
2024,01,31,12,15,12.20
2024,01,31,12,16,12.20
2024,01,31,12,17,12.20
2024,01,31,12,18,12.20
2024,01,31,12,19,12.20
2024,01,31,12,20,12.20
2024,01,31,12,21,12.20
2024,01,31,12,22,12.20
2024,01,31,12,23,12.20
2024,01,31,12,24,12.20
2024,01,31,12,25,12.20
2024,01,31,12,26,12.20
2024,01,31,12,27,12.20
2024,01,31,12,28,12.20
2024,01,31,12,29,12.20
2024,01,31,12,30,12.20
2024,01,31,12,31,12.20
2024,01,31,12,32,12.20
2024,01,31,12,33,12.10
2024,01,31,12,34,12.00
2024,01,31,12,35,12.00
2024,01,31,12,36,11.90
2024,01,31,12,37,11.80
2024,01,31,12,38,11.70
2024,01,31,12,39,11.70
2024,01,31,12,40,11.60
2024,01,31,12,41,11.60
2024,01,31,12,42,11.50
2024,01,31,12,43,11.50
2024,01,31,12,44,11.50
2024,01,31,12,45,11.40
2024,01,31,12,46,11.40
2024,01,31,12,47,11.40
2024,01,31,12,48,11.40
2024,01,31,12,49,11.40
2024,01,31,12,50,11.50
2024,01,31,12,51,11.50
2024,01,31,12,52,11.60
2024,01,31,12,53,11.60
2024,01,31,12,54,11.60
2024,01,31,12,55,11.70
2024,01,31,12,56,11.70
2024,01,31,12,57,11.70
2024,01,31,12,58,11.70
2024,01,31,12,59,11.70
2024,01,31,13,00,11.70
2024,01,31,13,01,11.70
2024,01,31,13,02,11.70
2024,01,31,13,03,11.80
2024,01,31,13,04,11.80
2024,01,31,13,05,11.90
2024,01,31,13,06,11.90
2024,01,31,13,07,12.00
2024,01,31,13,08,12.00
2024,01,31,13,09,12.00
2024,01,31,13,10,12.10
2024,01,31,13,11,12.10
2024,01,31,13,12,12.10
2024,01,31,13,13,12.10
2024,01,31,13,14,12.10
2024,01,31,13,15,12.00
2024,01,31,13,16,12.00
2024,01,31,13,17,12.00
2024,01,31,13,18,12.00
2024,01,31,13,19,12.00
2024,01,31,13,20,12.00
2024,01,31,13,21,12.00
2024,01,31,13,22,12.00
2024,01,31,13,23,12.00
2024,01,31,13,24,12.00
2024,01,31,13,25,12.10
2024,01,31,13,26,12.10
2024,01,31,13,27,12.10
2024,01,31,13,28,12.00
2024,01,31,13,29,12.00
2024,01,31,13,30,12.00
2024,01,31,13,31,12.00
2024,01,31,13,32,12.00
2024,01,31,13,33,12.00
2024,01,31,13,34,11.90
2024,01,31,13,35,11.90
2024,01,31,13,36,11.80
2024,01,31,13,37,11.80
2024,01,31,13,38,11.80
2024,01,31,13,39,11.80
2024,01,31,13,40,11.80
2024,01,31,13,41,11.80
2024,01,31,13,42,11.90
2024,01,31,13,43,11.90
2024,01,31,13,44,12.00
2024,01,31,13,45,12.00
2024,01,31,13,46,12.10
2024,01,31,13,47,12.10
2024,01,31,13,48,12.10
2024,01,31,13,49,12.10
2024,01,31,13,50,12.00
2024,01,31,13,51,12.00
2024,01,31,13,52,11.90
2024,01,31,13,53,11.90
2024,01,31,13,54,11.90
2024,01,31,13,55,11.80
2024,01,31,13,56,11.80
2024,01,31,13,57,11.80
2024,01,31,13,58,11.80
2024,01,31,13,59,11.80
2024,01,31,14,00,11.70
2024,01,31,14,01,11.70
2024,01,31,14,02,11.70
2024,01,31,14,03,11.70
2024,01,31,14,04,11.70
2024,01,31,14,05,11.70
2024,01,31,14,06,11.70
2024,01,31,14,07,11.70
2024,01,31,14,08,11.70
2024,01,31,14,09,11.70
2024,01,31,14,10,11.70
2024,01,31,14,11,11.70
2024,01,31,14,12,11.70
2024,01,31,14,13,11.70
2024,01,31,14,14,11.70
2024,01,31,14,15,11.70
2024,01,31,14,16,11.70
2024,01,31,14,17,11.70
2024,01,31,14,18,11.70
2024,01,31,14,19,11.60
2024,01,31,14,20,11.50
2024,01,31,14,21,11.50
2024,01,31,14,22,11.40
2024,01,31,14,23,11.40
2024,01,31,14,24,11.40
2024,01,31,14,25,11.40
2024,01,31,14,26,11.40
2024,01,31,14,27,11.40
2024,01,31,14,28,11.40
2024,01,31,14,29,11.40
2024,01,31,14,30,11.40
2024,01,31,14,31,11.40
2024,01,31,14,32,11.40
2024,01,31,14,33,11.40
2024,01,31,14,34,11.40
2024,01,31,14,35,11.40
2024,01,31,14,36,11.40
2024,01,31,14,37,11.40
2024,01,31,14,38,11.40
2024,01,31,14,39,11.40
2024,01,31,14,40,11.40
2024,01,31,14,41,11.40
2024,01,31,14,42,11.40
2024,01,31,14,43,11.40
2024,01,31,14,44,11.50
2024,01,31,14,45,11.50
2024,01,31,14,46,11.50
2024,01,31,14,47,11.60
2024,01,31,14,48,11.60
2024,01,31,14,49,11.60
2024,01,31,14,50,11.60
2024,01,31,14,51,11.60
2024,01,31,14,52,11.70
2024,01,31,14,53,11.70
2024,01,31,14,54,11.70
2024,01,31,14,55,11.70
2024,01,31,14,56,11.70
2024,01,31,14,57,11.70
2024,01,31,14,58,11.70
2024,01,31,14,59,11.70
2024,01,31,15,00,11.70
2024,01,31,15,01,11.70
2024,01,31,15,02,11.70
2024,01,31,15,03,11.70
2024,01,31,15,04,11.70
2024,01,31,15,05,11.80
2024,01,31,15,06,11.80
2024,01,31,15,07,11.80
2024,01,31,15,08,11.80
2024,01,31,15,09,11.80
2024,01,31,15,10,11.70
2024,01,31,15,11,11.70
2024,01,31,15,12,11.70
2024,01,31,15,13,11.70
2024,01,31,15,14,11.70
2024,01,31,15,15,11.70
2024,01,31,15,16,11.70
2024,01,31,15,17,11.70
2024,01,31,15,18,11.70
2024,01,31,15,19,11.70
2024,01,31,15,20,11.70
2024,01,31,15,21,11.70
2024,01,31,15,22,11.80
2024,01,31,15,23,11.80
2024,01,31,15,24,11.80
2024,01,31,15,25,11.80
2024,01,31,15,26,11.80
2024,01,31,15,27,11.80
2024,01,31,15,28,11.80
2024,01,31,15,29,11.80
2024,01,31,15,30,11.80
2024,01,31,15,31,11.80
2024,01,31,15,32,11.80
2024,01,31,15,33,11.80
2024,01,31,15,34,11.90
2024,01,31,15,35,11.90
2024,01,31,15,36,11.80
2024,01,31,15,37,11.80
2024,01,31,15,38,11.90
2024,01,31,15,39,11.90
2024,01,31,15,40,12.00
2024,01,31,15,41,12.00
2024,01,31,15,42,12.10
2024,01,31,15,43,12.20
2024,01,31,15,44,12.20
2024,01,31,15,45,12.30
2024,01,31,15,46,12.30
2024,01,31,15,47,12.30
2024,01,31,15,48,12.30
2024,01,31,15,49,12.30
2024,01,31,15,50,12.30
2024,01,31,15,51,12.20
2024,01,31,15,52,12.20
2024,01,31,15,53,12.20
2024,01,31,15,54,12.20
2024,01,31,15,55,12.10
2024,01,31,15,56,12.10
2024,01,31,15,57,12.10
2024,01,31,15,58,12.10
2024,01,31,15,59,12.10
2024,01,31,16,00,12.00
2024,01,31,16,01,12.00
2024,01,31,16,02,12.00
2024,01,31,16,03,11.90
2024,01,31,16,04,11.90
2024,01,31,16,05,11.90
2024,01,31,16,06,11.90
2024,01,31,16,07,11.90
2024,01,31,16,08,11.90
2024,01,31,16,09,11.90
2024,01,31,16,10,11.90
2024,01,31,16,11,11.90
2024,01,31,16,12,12.00
2024,01,31,16,13,12.10
2024,01,31,16,14,12.20
2024,01,31,16,15,12.20
2024,01,31,16,16,12.20
2024,01,31,16,17,12.20
2024,01,31,16,18,12.20
2024,01,31,16,19,12.20
2024,01,31,16,20,12.20
2024,01,31,16,21,12.10
2024,01,31,16,22,12.10
2024,01,31,16,23,12.00
2024,01,31,16,24,12.00
2024,01,31,16,25,11.90
2024,01,31,16,26,11.90
2024,01,31,16,27,11.90
2024,01,31,16,28,11.90
2024,01,31,16,29,11.90
2024,01,31,16,30,11.90
2024,01,31,16,31,12.00
2024,01,31,16,32,12.00
2024,01,31,16,33,12.00
2024,01,31,16,34,12.00
2024,01,31,16,35,12.00
2024,01,31,16,36,12.00
2024,01,31,16,37,12.00
2024,01,31,16,38,12.00
2024,01,31,16,39,12.00
2024,01,31,16,40,12.00
2024,01,31,16,41,12.00
2024,01,31,16,42,12.00
2024,01,31,16,43,12.00
2024,01,31,16,44,11.90
2024,01,31,16,45,11.90
2024,01,31,16,46,11.90
2024,01,31,16,47,11.90
2024,01,31,16,48,11.90
2024,01,31,16,49,11.90
2024,01,31,16,50,11.90
2024,01,31,16,51,11.90
2024,01,31,16,52,11.90
2024,01,31,16,53,11.80
2024,01,31,16,54,11.90
2024,01,31,16,55,11.90
2024,01,31,16,56,11.90
2024,01,31,16,57,12.00
2024,01,31,16,58,12.00
2024,01,31,16,59,12.00
2024,01,31,17,00,12.10
2024,01,31,17,01,12.10
2024,01,31,17,02,12.10
2024,01,31,17,03,12.10
2024,01,31,17,04,12.10
2024,01,31,17,05,12.10
2024,01,31,17,06,12.00
2024,01,31,17,07,12.00
2024,01,31,17,08,12.00
2024,01,31,17,09,12.00
2024,01,31,17,10,12.00
2024,01,31,17,11,12.00
2024,01,31,17,12,12.00
2024,01,31,17,13,12.00
2024,01,31,17,14,12.00
2024,01,31,17,15,12.00
2024,01,31,17,16,12.00
2024,01,31,17,17,12.00
2024,01,31,17,18,11.90
2024,01,31,17,19,11.90
2024,01,31,17,20,11.90
2024,01,31,17,21,11.90
2024,01,31,17,22,11.90
2024,01,31,17,23,11.90
2024,01,31,17,24,11.90
2024,01,31,17,25,11.90
2024,01,31,17,26,11.90
2024,01,31,17,27,11.90
2024,01,31,17,28,11.90
2024,01,31,17,29,11.90
2024,01,31,17,30,11.90
2024,01,31,17,31,11.90
2024,01,31,17,32,11.90
2024,01,31,17,33,11.90
2024,01,31,17,34,11.90
2024,01,31,17,35,11.90
2024,01,31,17,36,11.90
2024,01,31,17,37,11.90
2024,01,31,17,38,11.80
2024,01,31,17,39,11.80
2024,01,31,17,40,11.80
2024,01,31,17,41,11.70
2024,01,31,17,42,11.70
2024,01,31,17,43,11.70
2024,01,31,17,44,11.70
2024,01,31,17,45,11.70
2024,01,31,17,46,11.70
2024,01,31,17,47,11.70
2024,01,31,17,48,11.70
2024,01,31,17,49,11.70
2024,01,31,17,50,11.70
2024,01,31,17,51,11.60
2024,01,31,17,52,11.60
2024,01,31,17,53,11.60
2024,01,31,17,54,11.60
2024,01,31,17,55,11.60
2024,01,31,17,56,11.60
2024,01,31,17,57,11.50
2024,01,31,17,58,11.50
2024,01,31,17,59,11.50
2024,01,31,18,00,11.50
2024,01,31,18,01,11.40
2024,01,31,18,02,11.40
2024,01,31,18,03,11.40
2024,01,31,18,04,11.40
2024,01,31,18,05,11.40
2024,01,31,18,06,11.40
2024,01,31,18,07,11.40
2024,01,31,18,08,11.40
2024,01,31,18,09,11.40
2024,01,31,18,10,11.40
2024,01,31,18,11,11.40
2024,01,31,18,12,11.40
2024,01,31,18,13,11.40
2024,01,31,18,14,11.50
2024,01,31,18,15,11.50
2024,01,31,18,16,11.60
2024,01,31,18,17,11.60
2024,01,31,18,18,11.60
2024,01,31,18,19,11.60
2024,01,31,18,20,11.60
2024,01,31,18,21,11.60
2024,01,31,18,22,11.60
2024,01,31,18,23,11.60
2024,01,31,18,24,11.60
2024,01,31,18,25,11.60
2024,01,31,18,26,11.70
2024,01,31,18,27,11.70
2024,01,31,18,28,11.70
2024,01,31,18,29,11.70
2024,01,31,18,30,11.70
2024,01,31,18,31,11.70
2024,01,31,18,32,11.70
2024,01,31,18,33,11.70
2024,01,31,18,34,11.70
2024,01,31,18,35,11.60
2024,01,31,18,36,11.60
2024,01,31,18,37,11.60
2024,01,31,18,38,11.60
2024,01,31,18,39,11.60
2024,01,31,18,40,11.50
2024,01,31,18,41,11.50
2024,01,31,18,42,11.50
2024,01,31,18,43,11.50
2024,01,31,18,44,11.50
2024,01,31,18,45,11.40
2024,01,31,18,46,11.40
2024,01,31,18,47,11.40
2024,01,31,18,48,11.40
2024,01,31,18,49,11.40
2024,01,31,18,50,11.40
2024,01,31,18,51,11.40
2024,01,31,18,52,11.40
2024,01,31,18,53,11.40
2024,01,31,18,54,11.40
2024,01,31,18,55,11.40
2024,01,31,18,56,11.40
2024,01,31,18,57,11.30
2024,01,31,18,58,11.30
2024,01,31,18,59,11.30
2024,01,31,19,00,11.30
2024,01,31,19,01,11.30
2024,01,31,19,02,11.30
2024,01,31,19,03,11.30
2024,01,31,19,04,11.30
2024,01,31,19,05,11.40
2024,01,31,19,06,11.40
2024,01,31,19,07,11.30
2024,01,31,19,08,11.30
2024,01,31,19,09,11.30
2024,01,31,19,10,11.30
2024,01,31,19,11,11.30
2024,01,31,19,12,11.30
2024,01,31,19,13,11.30
2024,01,31,19,14,11.30
2024,01,31,19,15,11.30
2024,01,31,19,16,11.30
2024,01,31,19,17,11.30
2024,01,31,19,18,11.30
2024,01,31,19,19,11.30
2024,01,31,19,20,11.40
2024,01,31,19,21,11.40
2024,01,31,19,22,11.40
2024,01,31,19,23,11.40
2024,01,31,19,24,11.40
2024,01,31,19,25,11.40
2024,01,31,19,26,11.40
2024,01,31,19,27,11.40
2024,01,31,19,28,11.40
2024,01,31,19,29,11.40
2024,01,31,19,30,11.40
2024,01,31,19,31,11.40
2024,01,31,19,32,11.50
2024,01,31,19,33,11.50
2024,01,31,19,34,11.50
2024,01,31,19,35,11.50
2024,01,31,19,36,11.50
2024,01,31,19,37,11.60
2024,01,31,19,38,11.70
2024,01,31,19,39,11.70
2024,01,31,19,40,11.70
2024,01,31,19,41,11.70
2024,01,31,19,42,11.70
2024,01,31,19,43,11.70
2024,01,31,19,44,11.70
2024,01,31,19,45,11.70
2024,01,31,19,46,11.70
2024,01,31,19,47,11.60
2024,01,31,19,48,11.60
2024,01,31,19,49,11.60
2024,01,31,19,50,11.60
2024,01,31,19,51,11.60
2024,01,31,19,52,11.60
2024,01,31,19,53,11.60
2024,01,31,19,54,11.60
2024,01,31,19,55,11.60
2024,01,31,19,56,11.60
2024,01,31,19,57,11.60
2024,01,31,19,58,11.60
2024,01,31,19,59,11.70
2024,01,31,20,00,11.70
2024,01,31,20,01,11.70
2024,01,31,20,02,11.70
2024,01,31,20,03,11.70
2024,01,31,20,04,11.70
2024,01,31,20,05,11.70
2024,01,31,20,06,11.70
2024,01,31,20,07,11.70
2024,01,31,20,08,11.70
2024,01,31,20,09,11.70
2024,01,31,20,10,11.70
2024,01,31,20,11,11.70
2024,01,31,20,12,11.70
2024,01,31,20,13,11.70
2024,01,31,20,14,11.70
2024,01,31,20,15,11.70
2024,01,31,20,16,11.70
2024,01,31,20,17,11.70
2024,01,31,20,18,11.70
2024,01,31,20,19,11.70
2024,01,31,20,20,11.70
2024,01,31,20,21,11.70
2024,01,31,20,22,11.70
2024,01,31,20,23,11.70
2024,01,31,20,24,11.70
2024,01,31,20,25,11.70
2024,01,31,20,26,11.70
2024,01,31,20,27,11.70
2024,01,31,20,28,11.70
2024,01,31,20,29,11.70
2024,01,31,20,30,11.70
2024,01,31,20,31,11.70
2024,01,31,20,32,11.70
2024,01,31,20,33,11.70
2024,01,31,20,34,11.70
2024,01,31,20,35,11.70
2024,01,31,20,36,11.70
2024,01,31,20,37,11.70
2024,01,31,20,38,11.70
2024,01,31,20,39,11.70
2024,01,31,20,40,11.70
2024,01,31,20,41,11.70
2024,01,31,20,42,11.70
2024,01,31,20,43,11.70
2024,01,31,20,44,11.70
2024,01,31,20,45,11.70
2024,01,31,20,46,11.70
2024,01,31,20,47,11.70
2024,01,31,20,48,11.80